This demonstration page uses our WeatherBlox Daily Observations layout. Learn more.

Left ArrowRight Arrow

Hourly Observations for May 23, 2021

Temp ( °F °C ) Dew Point ( °F °C ) Humidity (%) Winds ( mph kmh ) Pressure ( in mb ) Visibility ( mi km ) Precip ( " mm )
12:53 am 00:53 Clear 63 17.2 60 15.6 90 90 N N/A 30.25 1025 9 14 N/A
1:53 am 01:53 Clear 62 16.7 60 15.6 93 93 N N/A 30.24 1024 8 13 N/A
2:53 am 02:53 Clear 61 16.1 60 15.6 97 97 N N/A 30.24 1024 7 11 N/A
3:53 am 03:53 Clear with Mist and Fog 60 15.6 58 14.4 93 93 N N/A 30.25 1024 4 6 N/A
4:53 am 04:53 Clear with Mist and Fog 59 15 58 14.4 96 96 N N/A 30.25 1024 5 8 N/A
5:53 am 05:53 Clear with Mist and Fog 57 13.9 55 12.8 93 93 N N/A 30.25 1024 6 10 N/A
6:53 am 06:53 Sunny with Mist and Fog 59 15 58 14.4 96 96 N N/A 30.27 1025 3 5 N/A
7:53 am 07:53 Hazy 65 18.3 60 15.6 84 84 N N/A 30.27 1025 6 10 N/A
8:53 am 08:53 Sunny 70 21.1 62 16.7 76 76 N N/A 30.27 1025 8 13 N/A
9:53 am 09:53 Sunny 76 24.4 63 17.2 64 64 N N/A 30.26 1025 10 16 N/A
10:53 am 10:53 Sunny 81 27.2 63 17.2 54 54 NW 5 7 30.24 1024 10 16 N/A
11:53 am 11:53 Partly Cloudy 82 27.8 62 16.7 51 51 WNW 9 15 30.23 1024 10 16 N/A
12:53 pm 12:53 Mostly Sunny 84 28.9 61 16.1 46 46 W 9 15 30.21 1023 10 16 N/A
1:53 pm 13:53 Mostly Cloudy 85 29.4 62 16.7 46 46 W 7 11 30.19 1023 10 16 N/A
2:53 pm 14:53 Cloudy 82 27.8 62 16.7 51 51 NW 9 15 30.19 1022 10 16 N/A
3:53 pm 15:53 Cloudy 81 27.2 62 16.7 53 53 NW 10 17 30.18 1022 10 16 N/A
4:53 pm 16:53 Cloudy 83 28.3 63 17.2 51 51 WNW 7 11 30.16 1021 10 16 N/A
5:53 pm 17:53 Cloudy 83 28.3 62 16.7 49 49 WNW 8 13 30.16 1021 10 16 N/A
6:53 pm 18:53 Cloudy 81 27.2 63 17.2 54 54 NW 9 15 30.15 1021 10 16 N/A
7:53 pm 19:53 Cloudy 79 26.1 64 17.8 60 60 NW 6 9 30.14 1021 10 16 N/A
8:53 pm 20:53 Cloudy 75 23.9 66 18.9 74 74 N N/A 30.14 1021 10 16 N/A
9:53 pm 21:53 Cloudy 73 22.8 66 18.9 79 79 N N/A 30.15 1021 10 16 N/A
10:53 pm 22:53 Cloudy 72 22.2 67 19.4 84 84 N N/A 30.16 1021 10 16 N/A
11:53 pm 23:53 Cloudy 71 21.7 66 18.9 84 84 N N/A 30.16 1021 10 16 N/A

Powered by AerisWeather